2024-247R

Last updated on Fri Jan 17 2025 00:02:04 GMT+0000 (Coordinated Universal Time)

1 62392U 24247R 25016.58409285 .00008706 00000+0 42725-3 0 9999 2 62392 44.9948 220.4281 0003642 249.8852 110.1635 15.18489779 4116
UTC large
Height (km)
Speed (km/s)
/
Latitude / Longitude
Inclination (degrees)
Orbital Period (minutes)
Azimuth
Elevation
Range (km)
Doppler Factor

Next 0 passes for location: London (51.5072 / 0.1276)

Sorry there are no passes over London.